Location: Strada George Coșbuc
(47.6577°N, 23.5639°E)
Time: 22:13:07
(UTC+03:00)

ISS - Pass Details

Date: 02 October 2017
Orbit: 401 x 407 km, 51.6° (Epoch: 25 September)

Event Time Altitude Azimuth Distance (km) Brightness Sun altitude
Rises 19:24:45 0° 246° (WSW) 2,310 1.4 -4.5°
Reaches altitude 10° 19:26:49 10° 246° (WSW) 1,454 0.3 -4.8°
Maximum altitude 19:30:05 88° 336° (NNW) 409 -3.8 -5.4°
Drops below altitude 10° 19:33:22 10° 66° (ENE) 1,463 -1.6 -5.9°
Enters shadow 19:34:07 - 66° (ENE) 1,773 -1.2 -6.1°
